ASTRID 2

Satellite information

Favourite Embed

Satellite Type and Status

PAYLOADIN ORBIT

Key statistics

Satellite ASTRID 2 at a glance.

Uptime

9649

Days in orbit

Revolutions

≈ 13.7

Per day

Orbit

LEO

Low Earth Orbit

Inclination

83.0

Latest

Satellite identification and parameters

Extended collection of information and parameters for ASTRID 2.

Object identification

Identified? True

Debris? False

Object name: ASTRID 2

International designator: 1998-072B

Object number (NORAD): 25568

Object ID (CCSDS): 25568

Country: SWEDEN (SWED)

Current information (Y/N): Y

RCS size: MEDIUM

Orbital parameters

Period: 104.876 minutes

Inclination: 82.9523 deg

SMA: 7366.796 km

Apoapsis: 1007.811 km

Periapsis: 969.512 km

RAAN: 20.7259 deg

Eccentricy: 0.0025994

Argument of periapsis: 122.5023 deg

Mean anomaly: 298.8772 deg

Mean motion: 13.73045006 rev/day

Mean motion (dot): 0.00000143 rev/day2

B* drag term: 0.00013752 1/REarth

Two-line elements (TLE)

Creation date: May 11, 2025, 2:40 a.m.

Reference frame: TEME

Reference center: EARTH

Epoch: May 10, 2025, 6:06 p.m. UTC

TLE line 0: 0 ASTRID 2

TLE line 1: 1 25568U 98072B 25130.75459941 .00000143 00000-0 13752-3 0 9996

TLE line 2: 2 25568 82.9523 20.7259 0025994 122.5023 298.8772 13.73045006322746

Live tracking on map

Real-time ground track for satellite ASTRID 2.

In-orbit conjunctions

There are no conjunctions computed for ASTRID 2, at the moment. Check back to stay up to date, as we update our databases every day.

Go to all conjunctions

Associated space launch

Civilian navigation satellite equivalent to the purely military Parus

ASTRID 2 was lifted into orbit during the mission ‘Kosmos-3M | Nadezhda 8’, on board a Kosmos-3M space rocket.

The launch took place on Dec. 10, 1998, 11:57 a.m. from 132/1 (132L).

For more information about the launch, click the button.

Launch to space Kosmos-3M | Nadezhda 8
Kosmos-3M | Nadezhda 8

Agency: N/A

Status: Launch Successful

Launch date: Dec. 10, 1998, 11:57 a.m. UTC

Rocket: Kosmos-3M

Launch pad: 132/1 (132L)

Location: Plesetsk Cosmodrome, Russian Federation

...

Latest news about this satellite

There are no fresh news available about this satellite. Check back as we update our databases every day.


Newsletter sign-up

Weekly statistics, charts and insights to help you stay on top of the space industry.